Regional Weather Roundup
Issued by NWS

Home | Current Version | Previous Version | Graphics & Text | Print | Product List | Glossary On
Versions: 1 2 3 4 5 6 7 8 9 10 11 12 13 14 15 16 17 18 19 20 21 22 23 24 25 26 27 28 29 30 31 32 33 34 35 36 37 38 39 40 41 42 43 44 45 46 47 48 49 50
000
ASUS43 KBIS 180120
RWRND

NORTH DAKOTA REGIONAL WEATHER ROUNDUP
NATIONAL WEATHER SERVICE BISMARCK ND
800 PM CDT FRI APR 17 2015

NOTE: "FAIR" INDICATES FEW OR NO CLOUDS BELOW 12,000 FEET WITH NO
SIGNIFICANT WEATHER AND/OR OBSTRUCTIONS TO VISIBILITY.


NDZ001>003-009>011-017-180200-
NORTHWEST NORTH DAKOTA

CITY           SKY/WX    TMP DP  RH WIND       PRES   REMARKS
WILLISTON      CLEAR     66  26  22 NE10      30.07S
MINOT          CLEAR     59  24  26 N8        30.10R
MINOT AFB      CLEAR     60  26  27 NE10      30.09R
$$

NDZ018>021-031>035-040>046-180200-
SOUTHWEST NORTH DAKOTA

CITY           SKY/WX    TMP DP  RH WIND       PRES   REMARKS
BISMARCK       MOCLDY    68  29  23 SE5       30.06S
DICKINSON      PTCLDY    62  22  21 SE7       30.06S
GARRISON         N/A     64  31  28 NE10      30.07S
HETTINGER ARPT MOCLDY    62  24  23 S3        30.09S
$$

NDZ004>008-012>016-024-026-027-054-180200-
NORTHEAST NORTH DAKOTA

CITY           SKY/WX    TMP DP  RH WIND       PRES   REMARKS
GRAND FORKS    CLEAR     59  18  20 N13       30.07R
GRND FRKS AFB  CLEAR     59  18  20 NE13      30.08R
DEVILS LAKE    CLEAR     57  27  30 NE12      30.09R
$$

NDZ022-023-025-028>030-036>039-047>053-180200-
SOUTHEAST NORTH DAKOTA

CITY           SKY/WX    TMP DP  RH WIND       PRES   REMARKS
FARGO          PTCLDY    68  27  21 N22G33    30.02R
JAMESTOWN      MOCLDY    67  24  19 N10       30.03R
$$




USA.gov is the U.S. government's official web portal to all federal, state and local government web resources and services.